Location: Baia Mare
(47.6567°N, 23.5850°E)
Time: 14:36:54
(UTC+02:00)

ISS - Pass Details

Date: 06 December 2018
Orbit: 401 x 408 km, 51.6° (Epoch: 16 December)

Event Time Altitude Azimuth Distance (km) Brightness Sun altitude
Rises 18:45:03 0° 292° (WNW) 2,319 0.9 -21.1°
Reaches altitude 10° 18:47:09 10° 296° (WNW) 1,458 -0.3 -21.4°
Enters shadow 18:49:29 41° 316° (NW) 597 -2.8 -21.8°
